sat.trackr.live / text

‹ back to catalog

STARLINK-33758

NORAD 64004 · 2025-101L

PAYLOAD ACTIVE UNKNOWN

§ Identity

Operator
Country
US
Launch date
2025-05-14
Launch site
AFETR
Launch vehicle
Mass (kg)
RCS (m²)

Purposes: comms

External: N2YO · Heavens-Above · Gunter

§ Orbital elements

Epoch: 2026-09-20T22:20:11.558112Z

Period
94.27 min
Inclination
43.0044°
Eccentricity
0.0002184
Mean motion
15.27588976 rev/d
Perigee alt
481.5 km
Apogee alt
484.5 km
Semi-major
6,861.2 km
B*
5.9454e-4
RAAN
335.4445°
Arg perigee
268.6715°
Mean anomaly
91.3887°
Rev number
7,691

§ Raw data

STARLINK-337581 64004U 25101L   26263.93068933  .00016139  00000+0  59454-3 0  99922 64004  43.0044 335.4445 0002184 268.6715  91.3887 15.27588976 76916

JSON: /api/v1/satellites/64004 · /tle

For live sub-satellite position, see the globe view (requires WebGL).

§ Visibility from observer

Set your observer location to see the next 7 days of passes ≥ 10°. The values pass through the URL so the page stays shareable.

No JS? Fill the form by hand. The geolocation button needs JavaScript.